User: anonymous   Login
Location: Valley View Observatory
(41.0081°N, 76.5874°W)
Time: 12:08:44
(UTC-05:00)
Language:

Cosmos 2237 Rocket - Orbit

View from above orbital plane
View from above orbital plane
View from above satellite
View from above satellite

Ground track
Ground track

The orbit data is extracted from the following two-line orbital elements,

1 22566U 93016B   16041.59916297 -.00000056  00000-0 -41452-5 0  9994
2 22566  71.0087  20.8698 0009854 176.6950 183.4239 14.14924851181592
Epoch (UTC): 10 February 2016 14:22:47
Eccentricity: 0.0009854
inclination: 71.0087°
perigee height: 835 km
apogee height: 849 km
right ascension of ascending node: 20.8698°
argument of perigee: 176.6950°
revolutions per day: 14.14924851
mean anomaly at epoch: 183.4239°
orbit number at epoch: 18159

The dashed part of the orbit path shows where the satellite is in the earth's shadow,  

DLR